W7CBM Weather Reports


Display with metric or nautical units.
time (UTC)temp
F
wind
direction
speed
MPH
gust
MPH
rain 1hr
in
rain 24hr
in
rain mn
in
humidity
%
barometer
mb
20220528073728 68 155 0.0 3.0 0.00 0.00 0.00 42 1007.6
20220528073228 68 155 0.0 3.0 0.00 0.00 0.00 41 1007.6
20220528072757 68 155 1.0 3.0 0.00 0.00 0.00 40 1007.6
20220528072257 69 155 0.0 1.0 0.00 0.00 0.00 39 1007.7
20220528071727 69 155 0.0 1.0 0.00 0.00 0.00 39 1007.8
20220528071257 69 155 0.0 2.0 0.00 0.00 0.00 39 1007.9
20220528070757 69 155 1.0 3.0 0.00 0.00 0.00 39 1008.0
20220528070257 69 156 0.0 4.0 0.00 0.00 0.00 40 1007.8
20220528065727 69 155 3.0 4.0 0.00 0.00 0.00 40 1007.9
20220528065227 69 299 0.0 2.0 0.00 0.00 0.00 41 1007.9
20220528064756 69 300 0.0 1.0 0.00 0.00 0.00 40 1008.0
20220528064226 69 300 0.0 1.0 0.00 0.00 0.00 40 1008.0
20220528063756 69 300 0.0 1.0 0.00 0.00 0.00 40 1008.1
20220528063256 69 299 0.0 4.0 0.00 0.00 0.00 40 1008.1
20220528062756 70 300 0.0 4.0 0.00 0.00 0.00 40 1008.4
20220528062255 70 278 1.0 4.0 0.00 0.00 0.00 39 1008.4
20220528061756 69 278 0.0 4.0 0.00 0.00 0.00 39 1008.0
20220528061256 69 278 1.0 5.0 0.00 0.00 0.00 40 1008.0
20220528060755 69 261 2.0 5.0 0.00 0.00 0.00 40 1008.0
20220528060255 69 249 4.0 4.0 0.00 0.00 0.00 41 1007.9
20220528055755 69 135 0.0 2.0 0.00 0.00 0.00 40 1007.7
20220528055255 69 135 0.0 3.0 0.00 0.00 0.00 40 1007.7
20220528054755 69 136 0.0 3.0 0.00 0.00 0.00 41 1007.8
20220528054255 69 134 3.0 3.0 0.00 0.00 0.00 40 1007.7
20220528053755 70 134 1.0 3.0 0.00 0.00 0.00 40 1007.9
20220528053254 70 134 2.0 3.0 0.00 0.00 0.00 39 1007.9
20220528052754 70 134 0.0 3.0 0.00 0.00 0.00 40 1008.3
20220528052254 70 134 0.0 3.0 0.00 0.00 0.00 39 1008.3
20220528051754 71 134 0.0 3.0 0.00 0.00 0.00 38 1008.6
20220528051254 71 134 0.0 3.0 0.00 0.00 0.00 37 1008.6
20220528050753 71 135 1.0 3.0 0.00 0.00 0.00 37 1008.8
20220528050253 72 135 2.0 3.0 0.00 0.00 0.00 36 1008.7
20220528045753 72 135 1.0 2.0 0.00 0.00 0.00 36 1008.9
20220528045253 72 135 0.0 3.0 0.00 0.00 0.00 36 1009.0
20220528044753 72 135 0.0 3.0 0.00 0.00 0.00 35 1009.1
20220528044253 73 135 1.0 3.0 0.00 0.00 0.00 35 1009.5
20220528043753 73 135 0.0 4.0 0.00 0.00 0.00 34 1009.7
20220528043253 73 135 2.0 4.0 0.00 0.00 0.00 34 1009.9
20220528042753 73 29 3.0 3.0 0.00 0.00 0.00 34 1009.6
20220528042252 74 29 0.0 4.0 0.00 0.00 0.00 33 1009.2
20220528041752 74 29 3.0 4.0 0.00 0.00 0.00 33 1009.4
20220528041252 74 28 0.0 0.0 0.00 0.00 0.00 32 1009.6
20220528040752 74 28 0.0 2.0 0.00 0.00 0.00 32 1009.4
20220528040252 74 28 0.0 4.0 0.00 0.00 0.00 32 1008.8
20220528035752 75 28 2.0 4.0 0.00 0.00 0.00 31 1009.1
20220528035251 75 28 0.0 2.0 0.00 0.00 0.00 31 1009.1
20220528034751 75 28 1.0 6.0 0.00 0.00 0.00 31 1009.2
20220528034251 75 28 1.0 6.0 0.00 0.00 0.00 31 1009.2
20220528033751 75 321 0.0 6.0 0.00 0.00 0.00 31 1009.2
20220528033251 75 321 3.0 6.0 0.00 0.00 0.00 31 1009.2
20220528032751 75 359 2.0 5.0 0.00 0.00 0.00 31 1009.1
20220528032250 76 8 3.0 8.0 0.00 0.00 0.00 30 1009.0
20220528031751 76 317 3.0 11.0 0.00 0.00 0.00 30 1008.9
20220528031250 76 9 7.0 11.0 0.00 0.00 0.00 30 1009.0
20220528030750 76 332 7.0 7.0 0.00 0.00 0.00 30 1009.0
20220528030250 76 336 2.0 6.0 0.00 0.00 0.00 30 1008.8
20220528025750 76 330 4.0 9.0 0.00 0.00 0.00 30 1008.7
20220528025250 76 348 6.0 9.0 0.00 0.00 0.00 29 1008.6
20220528024750 76 313 7.0 8.0 0.00 0.00 0.00 29 1008.4
20220528024249 77 349 1.0 9.0 0.00 0.00 0.00 29 1008.5
20220528023749 77 360 4.0 9.0 0.00 0.00 0.00 28 1008.6
20220528023249 77 323 3.0 6.0 0.00 0.00 0.00 28 1008.8
20220528022749 77 305 0.0 9.0 0.00 0.00 0.00 28 1008.7
20220528022249 78 324 5.0 17.0 0.00 0.00 0.00 27 1008.6
20220528021749 78 19 6.0 17.0 0.00 0.00 0.00 27 1008.6
20220528021248 78 321 3.0 15.0 0.00 0.00 0.00 27 1008.6
20220528020748 78 24 4.0 14.0 0.00 0.00 0.00 27 1008.6
20220528020248 79 352 7.0 9.0 0.00 0.00 0.00 30 1008.3
20220528015748 79 307 2.0 10.0 0.00 0.00 0.00 30 1008.6
20220528015248 80 333 6.0 11.0 0.00 0.00 0.00 28 1008.6
20220528014748 80 287 3.0 11.0 0.00 0.00 0.00 26 1008.4
20220528014248 81 247 1.0 7.0 0.00 0.00 0.00 25 1008.7
20220528013748 81 307 1.0 11.0 0.00 0.00 0.00 26 1008.5
20220528013248 81 348 4.0 16.0 0.00 0.00 0.00 26 1008.4
20220528012747 81 298 4.0 16.0 0.00 0.00 0.00 26 1008.3
20220528012247 82 322 4.0 13.0 0.00 0.00 0.00 26 1008.3
20220528011747 82 269 4.0 13.0 0.00 0.00 0.00 25 1008.2
20220528011247 82 355 5.0 10.0 0.00 0.00 0.00 25 1008.2
20220528010747 82 311 2.0 10.0 0.00 0.00 0.00 25 1008.2
20220528010247 83 305 4.0 10.0 0.00 0.00 0.00 25 1008.2
20220528005746 83 302 3.0 11.0 0.00 0.00 0.00 24 1008.0
20220528005246 83 277 3.0 12.0 0.00 0.00 0.00 24 1007.9
20220528004746 84 288 2.0 12.0 0.00 0.00 0.00 24 1008.0
20220528004246 84 307 3.0 5.0 0.00 0.00 0.00 23 1008.2
20220528003746 84 350 2.0 8.0 0.00 0.00 0.00 22 1008.2
20220528003246 85 354 4.0 8.0 0.00 0.00 0.00 22 1008.4
20220528002745 85 336 5.0 5.0 0.00 0.00 0.00 22 1008.4
20220528002246 86 355 0.0 6.0 0.00 0.00 0.00 21 1008.4
20220528001745 86 346 4.0 6.0 0.00 0.00 0.00 21 1008.4
20220528001245 86 281 2.0 6.0 0.00 0.00 0.00 21 1008.5
20220528000745 86 281 3.0 6.0 0.00 0.00 0.00 22 1008.5
20220528000245 85 281 2.0 5.0 0.00 0.00 0.00 23 1008.9
20220527235745 84 301 2.0 6.0 0.00 0.00 0.00 23 1008.7
20220527235245 84 302 0.0 6.0 0.00 0.00 0.00 24 1008.7
20220527234744 84 342 2.0 7.0 0.00 0.00 0.00 24 1008.9
20220527234244 84 338 4.0 7.0 0.00 0.00 0.00 23 1009.0
20220527233744 84 326 2.0 7.0 0.00 0.00 0.00 24 1009.0
20220527233244 85 353 3.0 7.0 0.00 0.00 0.00 23 1009.3
20220527232744 85 337 2.0 8.0 0.00 0.00 0.00 23 1009.4
20220527232244 85 329 3.0 9.0 0.00 0.00 0.00 23 1009.5
20220527231744 85 360 2.0 9.0 0.00 0.00 0.00 23 1009.6
20220527231244 84 305 1.0 5.0 0.00 0.00 0.00 24 1009.5
20220527230744 83 84 0.0 3.0 0.00 0.00 0.00 22 1009.6
20220527230243 83 83 1.0 9.0 0.00 0.00 0.00 25 1010.2
20220527225743 83 63 2.0 9.0 0.00 0.00 0.00 24 1010.3
20220527225243 83 69 7.0 8.0 0.00 0.00 0.00 24 1010.5
20220527224743 83 349 0.0 6.0 0.00 0.00 0.00 23 1010.4
20220527224243 83 348 4.0 6.0 0.00 0.00 0.00 24 1010.3
20220527223742 83 4 2.0 6.0 0.00 0.00 0.00 23 1010.2
20220527223243 82 277 3.0 6.0 0.00 0.00 0.00 24 1010.1
20220527222742 82 325 3.0 6.0 0.00 0.00 0.00 26 1010.5
20220527222242 83 273 1.0 7.0 0.00 0.00 0.00 28 1010.9
20220527221742 83 325 4.0 10.0 0.00 0.00 0.00 24 1010.9
20220527221242 83 351 3.0 10.0 0.00 0.00 0.00 23 1010.9
20220527220741 84 322 3.0 10.0 0.00 0.00 0.00 24 1011.1
20220527220242 85 318 5.0 10.0 0.00 0.00 0.00 23 1012.0
20220527215742 85 298 5.0 9.0 0.00 0.00 0.00 23 1012.0
20220527215242 84 291 2.0 7.0 0.00 0.00 0.00 25 1011.8
20220527214741 84 36 0.0 8.0 0.00 0.00 0.00 23 1011.9
20220527214241 84 203 1.0 8.0 0.00 0.00 0.00 23 1012.2
20220527213741 83 296 1.0 8.0 0.00 0.00 0.00 24 1012.1
20220527213241 83 340 4.0 10.0 0.00 0.00 0.00 24 1012.1
20220527212741 84 310 2.0 10.0 0.00 0.00 0.00 23 1012.1
20220527212241 84 305 3.0 6.0 0.00 0.00 0.00 24 1012.1
20220527211741 85 2 5.0 5.0 0.00 0.00 0.00 24 1012.5
20220527211240 85 300 3.0 4.0 0.00 0.00 0.00 23 1012.5
20220527210740 86 150 2.0 9.0 0.00 0.00 0.00 22 1012.5
20220527210240 86 148 0.0 9.0 0.00 0.00 0.00 20 1012.8
20220527205740 86 208 1.0 8.0 0.00 0.00 0.00 21 1013.0
20220527205240 86 179 2.0 13.0 0.00 0.00 0.00 21 1013.2
20220527204739 87 240 3.0 13.0 0.00 0.00 0.00 20 1013.6
20220527204239 88 218 4.0 9.0 0.00 0.00 0.00 22 1013.4
20220527203739 87 179 2.0 7.0 0.00 0.00 0.00 21 1013.5
20220527203239 86 203 1.0 10.0 0.00 0.00 0.00 22 1013.3
20220527202739 86 303 1.0 11.0 0.00 0.00 0.00 22 1013.3
20220527202239 85 296 1.0 11.0 0.00 0.00 0.00 22 1013.5
20220527201739 85 138 4.0 10.0 0.00 0.00 0.00 22 1013.6
20220527201238 85 219 5.0 10.0 0.00 0.00 0.00 23 1013.7
20220527200739 86 222 4.0 10.0 0.00 0.00 0.00 22 1013.8
20220527200238 85 250 3.0 7.0 0.00 0.00 0.00 25 1014.0
20220527195738 84 303 2.0 7.0 0.00 0.00 0.00 25 1013.8
20220527195238 84 218 1.0 11.0 0.00 0.00 0.00 24 1013.9
20220527194738 84 165 2.0 13.0 0.00 0.00 0.00 24 1014.1
20220527194237 84 194 0.0 13.0 0.00 0.00 0.00 24 1014.1
20220527193738 85 196 7.0 10.0 0.00 0.00 0.00 24 1014.5
20220527193237 85 285 1.0 10.0 0.00 0.00 0.00 23 1014.4
20220527192737 84 307 2.0 7.0 0.00 0.00 0.00 24 1014.3
20220527192237 84 273 4.0 9.0 0.00 0.00 0.00 24 1014.5
20220527191737 84 94 6.0 9.0 0.00 0.00 0.00 23 1014.5
20220527191237 85 198 5.0 8.0 0.00 0.00 0.00 24 1014.8
20220527190736 84 164 2.0 8.0 0.00 0.00 0.00 25 1014.7
20220527190236 83 168 4.0 7.0 0.00 0.00 0.00 26 1014.8
20220527185736 83 174 3.0 7.0 0.00 0.00 0.00 26 1014.9
20220527185236 83 35 1.0 6.0 0.00 0.00 0.00 25 1015.0
20220527184736 83 51 4.0 6.0 0.00 0.00 0.00 26 1015.1
20220527184236 83 265 2.0 8.0 0.00 0.00 0.00 25 1015.1
20220527183736 83 264 3.0 8.0 0.00 0.00 0.00 25 1015.1
20220527183236 83 219 4.0 8.0 0.00 0.00 0.00 24 1015.2
20220527182735 83 301 2.0 7.0 0.00 0.00 0.00 27 1015.3
20220527182235 83 292 3.0 7.0 0.00 0.00 0.00 29 1015.4
20220527181735 82 265 7.0 7.0 0.00 0.00 0.00 29 1015.4
20220527181235 82 165 0.0 5.0 0.00 0.00 0.00 29 1015.5
20220527180735 81 165 2.0 6.0 0.00 0.00 0.00 29 1015.3
20220527180235 81 2 1.0 6.0 0.00 0.00 0.00 29 1015.6
20220527175735 82 312 5.0 5.0 0.00 0.00 0.00 29 1015.7
20220527175235 81 265 2.0 5.0 0.00 0.00 0.00 29 1015.7
20220527174734 80 188 1.0 6.0 0.00 0.00 0.00 30 1015.4
20220527174234 80 205 3.0 8.0 0.00 0.00 0.00 30 1015.5
20220527173734 80 205 0.0 8.0 0.00 0.00 0.00 29 1015.5
20220527173234 80 188 2.0 5.0 0.00 0.00 0.00 31 1015.6
20220527172734 80 179 1.0 4.0 0.00 0.00 0.00 31 1015.6
20220527172234 80 179 1.0 4.0 0.00 0.00 0.00 32 1015.7
20220527171734 79 116 3.0 5.0 0.00 0.00 0.00 31 1015.6
20220527171233 79 184 2.0 6.0 0.00 0.00 0.00 31 1015.7
20220527170733 79 166 3.0 6.0 0.00 0.00 0.00 31 1015.7
20220527170233 79 284 4.0 6.0 0.00 0.00 0.00 33 1015.2
20220527165733 78 284 1.0 3.0 0.00 0.00 0.00 34 1015.1
20220527165233 78 285 0.0 6.0 0.00 0.00 0.00 34 1015.2
20220527164733 77 285 1.0 7.0 0.00 0.00 0.00 34 1015.0
20220527164232 76 255 5.0 7.0 0.00 0.00 0.00 36 1015.1
20220527163733 76 352 1.0 3.0 0.00 0.00 0.00 35 1015.2
20220527163232 75 352 2.0 7.0 0.00 0.00 0.00 35 1014.9
20220527162732 75 352 1.0 7.0 0.00 0.00 0.00 35 1014.9
20220527162232 76 354 2.0 9.0 0.00 0.00 0.00 36 1015.4
20220527161732 76 336 2.0 9.0 0.00 0.00 0.00 38 1015.5
20220527161231 76 319 3.0 9.0 0.00 0.00 0.00 38 1015.7
20220527160731 75 292 2.0 8.0 0.00 0.00 0.00 37 1015.5
20220527160231 74 348 1.0 7.0 0.00 0.00 0.00 38 1015.4
20220527155731 74 353 3.0 7.0 0.00 0.00 0.00 39 1015.5
20220527155231 74 274 3.0 7.0 0.00 0.00 0.00 38 1015.4
20220527154731 74 338 2.0 6.0 0.00 0.00 0.00 37 1015.6
20220527154231 74 343 4.0 7.0 0.00 0.00 0.00 39 1015.6
20220527153731 74 356 3.0 7.0 0.00 0.00 0.00 40 1015.7
20220527153232 74 355 4.0 7.0 0.00 0.00 0.00 38 1015.7
20220527152730 74 328 0.0 7.0 0.00 0.00 0.00 39 1015.9
20220527152230 73 338 2.0 7.0 0.00 0.00 0.00 39 1016.0
20220527151730 73 306 3.0 5.0 0.00 0.00 0.00 41 1016.0
20220527151230 73 318 1.0 5.0 0.00 0.00 0.00 40 1016.0
20220527150730 73 316 3.0 7.0 0.00 0.00 0.00 40 1016.1
20220527150229 73 317 3.0 7.0 0.00 0.00 0.00 40 1016.6
20220527145729 73 321 5.0 7.0 0.00 0.00 0.00 41 1016.6
20220527145229 72 343 1.0 5.0 0.00 0.00 0.00 42 1016.3
20220527144729 71 343 2.0 5.0 0.00 0.00 0.00 44 1016.3
20220527144229 71 344 1.0 4.0 0.00 0.00 0.00 45 1016.2
20220527143729 70 344 0.0 5.0 0.00 0.00 0.00 46 1015.9
20220527143229 69 344 0.0 5.0 0.00 0.00 0.00 45 1015.7
20220527142729 69 343 2.0 5.0 0.00 0.00 0.00 44 1015.7
20220527142258 69 343 1.0 5.0 0.00 0.00 0.00 45 1015.7
20220527141758 69 344 4.0 5.0 0.00 0.00 0.00 45 1015.7
20220527141228 69 320 0.0 4.0 0.00 0.00 0.00 45 1015.7
20220527140728 69 316 3.0 6.0 0.00 0.00 0.00 44 1015.7
20220527140228 69 310 3.0 7.0 0.00 0.00 0.00 44 1016.4
20220527135758 69 282 6.0 7.0 0.00 0.00 0.00 43 1016.3
20220527135227 69 325 3.0 6.0 0.00 0.00 0.00 45 1016.1
20220527134728 68 333 1.0 3.0 0.00 0.00 0.00 46 1015.8
20220527134257 68 333 1.0 3.0 0.00 0.00 0.00 47 1015.7
20220527133727 68 14 2.0 2.0 0.00 0.00 0.00 48 1015.8
20220527133227 68 14 0.0 1.0 0.00 0.00 0.00 49 1015.9
20220527132757 68 14 0.0 2.0 0.00 0.00 0.00 48 1015.7
20220527132227 68 14 0.0 2.0 0.00 0.00 0.00 48 1015.8
20220527131727 68 14 0.0 1.0 0.00 0.00 0.00 46 1015.8
20220527131257 67 14 0.0 1.0 0.00 0.00 0.00 46 1015.8
20220527130726 67 14 0.0 0.0 0.00 0.00 0.00 44 1015.8
20220527130226 67 14 0.0 0.0 0.00 0.00 0.00 44 1016.1
20220527125726 67 14 0.0 0.0 0.00 0.00 0.00 44 1016.0
20220527125256 67 15 0.0 0.0 0.00 0.00 0.00 43 1016.0
20220527124756 67 13 0.0 0.0 0.00 0.00 0.00 42 1016.0
20220527124256 67 13 0.0 1.0 0.00 0.00 0.00 42 1016.1
20220527123756 67 179 0.0 1.0 0.00 0.00 0.00 40 1016.2
20220527123255 68 179 0.0 2.0 0.00 0.00 0.00 40 1016.1
20220527122756 68 179 0.0 2.0 0.00 0.00 0.00 39 1016.1
20220527122255 69 15 0.0 2.0 0.00 0.00 0.00 38 1016.1
20220527121755 69 15 1.0 2.0 0.00 0.00 0.00 37 1016.2
20220527121255 69 14 0.0 4.0 0.00 0.00 0.00 36 1016.2
20220527120755 69 14 1.0 4.0 0.00 0.00 0.00 36 1016.2
20220527120254 70 15 0.0 4.0 0.00 0.00 0.00 35 1016.4
20220527115755 70 28 1.0 7.0 0.00 0.00 0.00 35 1016.4
20220527115254 70 23 2.0 7.0 0.00 0.00 0.00 34 1016.4
20220527114754 70 344 2.0 6.0 0.00 0.00 0.00 33 1016.4
20220527114254 71 341 2.0 5.0 0.00 0.00 0.00 32 1016.5
20220527113754 71 307 2.0 9.0 0.00 0.00 0.00 32 1016.5
20220527113254 71 307 2.0 9.0 0.00 0.00 0.00 31 1016.5
20220527112754 70 329 1.0 7.0 0.00 0.00 0.00 31 1016.2
20220527112254 70 301 0.0 3.0 0.00 0.00 0.00 30 1016.2
20220527111754 71 282 0.0 6.0 0.00 0.00 0.00 29 1016.4
20220527111253 71 281 3.0 6.0 0.00 0.00 0.00 29 1016.4
20220527110753 71 359 0.0 3.0 0.00 0.00 0.00 29 1016.4
20220527110253 71 359 0.0 5.0 0.00 0.00 0.00 27 1016.2
20220527105753 71 15 3.0 5.0 0.00 0.00 0.00 28 1016.1
20220527105252 72 279 0.0 2.0 0.00 0.00 0.00 27 1016.3
20220527104752 72 280 1.0 2.0 0.00 0.00 0.00 26 1016.2
20220527104252 73 280 0.0 2.0 0.00 0.00 0.00 25 1016.2
20220527103752 74 279 2.0 3.0 0.00 0.00 0.00 22 1016.3
20220527103252 74 282 0.0 4.0 0.00 0.00 0.00 22 1016.2
20220527102752 75 283 0.0 4.0 0.00 0.00 0.00 22 1016.2
20220527102252 76 179 1.0 2.0 0.00 0.00 0.00 21 1016.5
20220527101752 76 179 0.0 2.0 0.00 0.00 0.00 20 1016.5
20220527101252 77 179 0.0 6.0 0.00 0.00 0.00 19 1016.5
20220527100752 77 286 1.0 7.0 0.00 0.00 0.00 19 1016.5
20220527100251 77 219 2.0 10.0 0.00 0.00 0.00 18 1016.4
20220527095751 77 208 3.0 13.0 0.00 0.00 0.00 18 1016.5
20220527095251 78 259 4.0 13.0 0.00 0.00 0.00 18 1016.4
20220527094751 78 215 2.0 11.0 0.00 0.00 0.00 17 1016.1
20220527094251 78 207 8.0 11.0 0.00 0.00 0.00 17 1016.2
20220527093750 79 179 5.0 12.0 0.00 0.00 0.00 17 1016.1
20220527093250 79 194 5.0 15.0 0.00 0.00 0.00 16 1015.9
20220527092750 79 207 3.0 15.0 0.00 0.00 0.00 16 1015.8
20220527092250 79 233 6.0 14.0 0.00 0.00 0.00 16 1015.6
20220527091750 79 165 4.0 17.0 0.00 0.00 0.00 16 1015.4
20220527091250 79 174 5.0 17.0 0.00 0.00 0.00 16 1015.3
20220527090749 79 179 6.0 13.0 0.00 0.00 0.00 16 1015.2
20220527090249 79 169 5.0 18.0 0.00 0.00 0.00 16 1014.9
20220527085749 79 179 11.0 21.0 0.00 0.00 0.00 16 1014.5
20220527085249 79 174 12.0 26.0 0.00 0.00 0.00 16 1014.5
20220527084749 79 192 10.0 26.0 0.00 0.00 0.00 16 1014.3
20220527084249 79 151 12.0 19.0 0.00 0.00 0.00 16 1014.4
20220527083749 80 149 5.0 19.0 0.00 0.00 0.00 16 1014.7
20220527083249 79 221 9.0 21.0 0.00 0.00 0.00 16 1014.4
20220527082748 79 205 10.0 21.0 0.00 0.00 0.00 16 1014.3
20220527082248 79 174 10.0 14.0 0.00 0.00 0.00 16 1014.4
20220527081748 79 188 8.0 16.0 0.00 0.00 0.00 16 1014.2
20220527081249 79 205 10.0 16.0 0.00 0.00 0.00 16 1014.2
20220527080748 80 191 7.0 19.0 0.00 0.00 0.00 16 1014.5
20220527080248 80 179 9.0 19.0 0.00 0.00 0.00 16 1014.2
20220527075747 80 164 8.0 14.0 0.00 0.00 0.00 16 1014.1
20220527075247 80 159 11.0 13.0 0.00 0.00 0.00 16 1014.2
20220527074747 80 215 9.0 12.0 0.00 0.00 0.00 15 1014.2
20220527074247 80 198 9.0 16.0 0.00 0.00 0.00 16 1014.2